Погода в Цмуре

Россия / Республика Дагестан     41°41′04″N   48°03′22″E
темп.,
°C
ветер,
м/с
пор.,
м/с
влажн.,
%
обл.,
%
осадки,
мм/ч
давл.,
гПа
погр.,
м
26 июля, пн
пн2600:00+17з22810 0.0 101912
03:00+17з22800 0.0 101911
06:00+19з11710 0.0 101987
09:00+24в33482 0.0 10181034
12:00+27в43366 0.0 10171702
15:00+27в53383 0.0 10161566
18:00+24в22460 0.0 1016642
21:00+19з22610 0.0 101812
27 июля, вт
вт2700:00+18з22640 0.0 101813
03:00+18з32640 0.0 101620
06:00+21з11550 0.0 101675
09:00+25св43415 0.0 1015997
12:00+26св54414 0.3 10141432
15:00+26св653827 0.4 10131454
18:00+21с4546100 0.1 1015695
21:00+16з227169 0.3 101720
28 июля, ср
ср2800:00+16юз117499 0.6 101816
03:00+15ссз128391 0.7 101745
06:00+14св1191100 0.0 1018147
09:00+17ссв3467100 0.1 1018868
12:00+17с3466100 0.0 1018935
15:00+17ссз126397 0.1 1018591
18:00+17всв215561 0.0 1018873
21:00+15зюз117056 0.0 101913
29 июля, чт
чт2900:00+14з227298 0.0 101912
03:00+15зюз116394 0.0 101818
06:00+16св115848 0.0 1018113
09:00+20вюв324431 0.0 10181207
12:00+23вюв433843 0.0 10161811
15:00+23в444438 0.0 10151540
18:00+20в33558 0.0 1016727
21:00+15зюз22724 0.0 101714
30 июля, пт
пт3000:00+16з22684 0.0 101515
03:00+15з22700 0.0 101512
06:00+18з11580 0.0 101563
09:00+23в32390 0.0 10141107
12:00+27в54250 0.0 10121961
15:00+27в54280 0.0 10111642
18:00+23в33400 0.0 1012614
21:00+18з32550 0.0 101416